Flag for Belarus Weather past 2 weeks in Barysaw, Belarus

Now
37 °F

Sprinkles. Partly sunny.


Feels Like: 33 °F
Forecast: 37 / 44 °F
Wind: 6 mph from Southwest

Location: Minsk

Current Time: Mar 31, 2015 at 6:59:35 PM

Latest Report: Mar 31, 2015 at 6:30 PM


Visibility: N/A

Pressure: 29.36 "Hg

Humidity: 93%

Dew point: 36 °F

Location of BarysawLocation

Historic Weather in Barysaw — Graph

°F

Barysaw temperature yesterday

Maximum temperature yesterday: 43 °F (at 7:30 PM)
Minimum temperature yesterday: 30 °F (at 12:00 AM)
Average temperature yesterday: 35 °F

Past Weeks' High & Low Weather Summary

 TemperatureHumidityPressure
High61 °F (Mar 26, 2:00 PM)100% (Mar 19, 7:30 AM)30.95 "Hg (Mar 19, 7:30 AM)
Low16 °F (Mar 23, 3:30 AM)15% (Mar 17, 5:00 PM)29.30 "Hg (Mar 30, 2:00 PM)
Average38 °F67%30.06 "Hg
* Reported Mar 16 5:00 PM — Mar 31 5:30 PM, Barysaw, Weather by CustomWeather, © 2015

Note: Actual official high and low records may vary slightly from our data, if they occured in-between our weather recording intervals... More about our weather records

Advertising

Barysaw weather history for previous 24 hours

 ConditionsComfort  
Time TempWeatherWind HumidityBarometerVisibility
5:30 PM
Tue, Mar 31
43 °FPartly sunny.6 mph66%29.36 "HgN/A
5:00 PM45 °FPartly sunny.6 mph66%29.36 "HgN/A
4:30 PM43 °FBroken clouds.3 mph71%29.39 "HgN/A
4:00 PM45 °FPassing clouds.6 mph71%29.39 "HgN/A
3:30 PM43 °FPassing clouds.3 mph76%29.39 "HgN/A
3:00 PM43 °FPartly sunny.6 mph76%29.39 "HgN/A
2:30 PM37 °FSprinkles. Broken clouds.8 mph93%29.42 "HgN/A
2:00 PM41 °FOvercast.6 mph87%29.42 "HgN/A
1:30 PM41 °FMostly cloudy.8 mph87%29.42 "HgN/A
1:00 PM39 °FMostly cloudy.6 mph93%29.42 "HgN/A
12:30 PM39 °FSprinkles. Mostly cloudy.6 mph93%29.42 "HgN/A
12:00 PM41 °FOvercast.6 mph87%29.42 "HgN/A
11:30 AM39 °FOvercast.6 mph93%29.42 "HgN/A
11:00 AM39 °FOvercast.6 mph93%29.42 "HgN/A
10:30 AM39 °FOvercast.6 mph93%29.42 "HgN/A
10:00 AM37 °FLow clouds.3 mph100%29.42 "HgN/A
9:30 AM37 °FMostly cloudy.3 mph100%29.42 "HgN/A
9:00 AM37 °FMostly cloudy.3 mph100%29.42 "HgN/A
8:30 AM37 °FLow clouds.3 mph100%29.42 "HgN/A
8:00 AM36 °FLow clouds.3 mph100%29.42 "HgN/A
7:30 AM36 °FLow clouds.3 mph100%29.42 "HgN/A
7:00 AM36 °FMostly cloudy.3 mph100%29.42 "HgN/A
6:30 AM36 °FSprinkles. Mostly cloudy.1 mph100%29.39 "HgN/A
5:45 AM37 °FSprinkles. Mostly cloudy.6 mph100%29.39 "Hg6 mi
5:30 AM37 °FSprinkles. Mostly cloudy.6 mph100%29.39 "Hg6 mi
5:00 AM39 °FSprinkles. Mostly cloudy.8 mph100%29.39 "Hg4 mi
4:51 AM41 °FSprinkles. Fog.8 mph100%29.36 "Hg3 mi
4:30 AM41 °FSprinkles. Fog.3 mph100%29.36 "Hg2 mi
4:00 AM43 °FSprinkles. Fog.6 mph93%29.36 "Hg2 mi
3:45 AM43 °FSprinkles. Fog.6 mph93%29.39 "Hg2 mi
3:30 AM43 °FSprinkles. Fog.8 mph93%29.39 "Hg2 mi
3:00 AM43 °FFog.8 mph93%29.39 "Hg3 mi
2:30 AM43 °FFog.10 mph93%29.39 "Hg3 mi
2:00 AM41 °FFog.10 mph100%29.39 "Hg3 mi
1:30 AM41 °FPassing clouds.10 mph100%29.39 "Hg4 mi
1:00 AM41 °FPassing clouds.10 mph100%29.39 "Hg4 mi
12:30 AM41 °FPassing clouds.8 mph93%29.39 "HgN/A
11:30 PM
Mon, Mar 30
41 °FPartly cloudy.8 mph93%29.39 "HgN/A
11:00 PM41 °FPartly cloudy.8 mph93%29.39 "HgN/A
10:30 PM41 °FPassing clouds.8 mph93%29.39 "Hg5 mi
10:04 PM41 °FPassing clouds.6 mph93%29.39 "Hg6 mi
9:30 PM41 °FPassing clouds.6 mph100%29.36 "HgN/A
9:00 PM41 °FClear.8 mph93%29.36 "Hg10 mi
8:30 PM41 °FSunny.6 mph100%29.36 "Hg10 mi
8:00 PM43 °FBroken clouds.8 mph93%29.33 "HgN/A
7:30 PM43 °FPartly sunny.10 mph93%29.33 "HgN/A
7:00 PM41 °FSprinkles. Low clouds.13 mph100%29.33 "Hg6 mi
Weather by CustomWeather, © 2015

See weather overviewHow to use our weather pages